Location: Bennemühlen
(52.5740°N, 9.7135°E)
Time: 16:42:10
(UTC+00:00)

SR - Pass Details

Date: 19 February 2026
Orbit: 572 x 848 km, 66.7° (Epoch: 8 March)

Event Time Altitude Azimuth Distance (km) Brightness Sun altitude
Exits shadow 05:23:11 14° 263° (W) 1,668 ? -10.7°
Maximum altitude 05:26:24 34° 324° (NW) 1,016 ? -10.2°
Drops below altitude 10° 05:30:37 10° 30° (NNE) 2,056 ? -9.6°
Sets 05:33:12 0° 40° (NE) 3,018 ? -9.2°
